Total_Precipitation_Accumulation
0.25 0.19 0.58 0.92 0.66 0.64 0.67 0.75 0.92 0.89 0.88 0.98 0.87 0.54 0.48 0.43 0.31 0.17 0.17 0.22 0.42 0.74 0.78 0.58 0.33 0.32 0.37 0.43 0.34 0.24 0.23 0.24 0.20 0.20 0.24 0.47 0.58 0.46 0.38 0.47 1.29 2.69 1.70
0.30 0.23 0.56 0.92 0.83 0.76 0.66 0.67 0.61 0.68 0.94 1.06 1.01 0.97 0.77 0.59 0.36 0.25 0.17 0.32 0.72 0.62 0.56 0.66 0.60 0.42 0.19 0.12 0.09 0.13 0.11 0.03 0.00 0.01 0.02 0.06 0.31 0.80 0.70 0.72 1.54 2.30 1.58
0.42 0.29 0.37 0.97 0.87 0.92 0.71 0.69 0.61 0.69 0.85 1.00 1.41 1.49 1.09 0.69 0.52 0.18 0.17 0.32 0.90 1.06 0.68 0.86 0.70 0.21 0.08 0.05 0.06 0.06 0.03 0.01 0.02 0.02 0.05 0.09 0.13 0.73 0.75 0.81 1.24 1.88 1.67
0.43 0.48 0.43 1.04 1.01 0.98 0.70 0.61 0.69 0.74 0.75 0.94 1.40 1.43 1.18 0.90 0.36 0.23 0.33 0.42 0.86 1.39 0.93 0.63 0.42 0.16 0.11 0.08 0.05 0.09 0.10 0.03 0.01 0.02 0.04 0.22 0.11 0.62 0.81 1.04 1.21 1.51 1.40
0.67 1.08 1.02 1.18 1.29 1.26 1.11 0.77 0.72 0.80 0.72 0.76 1.11 1.33 1.14 0.99 0.67 0.48 0.42 0.39 0.65 0.83 0.86 0.70 0.44 0.23 0.16 0.11 0.03 0.05 0.12 0.08 0.01 0.02 0.07 0.19 0.24 0.73 1.20 1.55 1.26 1.21 1.46
1.04 1.35 1.66 1.51 1.34 1.25 1.25 0.98 0.83 0.75 0.81 0.84 0.91 1.22 1.37 1.32 1.42 1.08 0.84 0.41 0.27 0.39 0.46 0.66 0.30 0.14 0.09 0.06 0.05 0.04 0.09 0.11 0.04 0.05 0.09 0.10 0.20 0.80 1.46 1.44 1.18 1.39 1.35
1.53 1.25 1.69 2.19 1.82 1.36 1.33 1.17 1.00 0.95 1.12 0.92 1.18 1.36 1.37 1.13 1.45 1.40 0.81 0.31 0.24 0.26 0.47 0.49 0.40 0.19 0.12 0.06 0.04 0.07 0.09 0.05 0.06 0.04 0.03 0.04 0.09 0.48 1.09 1.41 1.26 1.28 1.16
2.35 2.98 2.52 2.87 2.48 1.89 1.63 1.49 1.36 1.28 1.30 1.20 1.33 1.62 1.48 1.41 1.27 1.32 0.88 0.47 0.38 0.35 0.41 0.39 0.38 0.36 0.19 0.14 0.12 0.10 0.07 0.03 0.01 0.01 0.01 0.03 0.11 0.19 0.67 1.09 1.15 1.09 0.93
1.97 1.81 1.87 2.31 2.40 1.97 1.77 1.96 1.66 1.30 0.98 1.05 1.23 1.47 1.23 1.17 1.06 1.16 1.24 0.86 0.83 0.79 0.78 0.65 0.45 0.35 0.27 0.22 0.19 0.13 0.05 0.02 0.00 0.00 0.01 0.04 0.17 0.43 0.61 0.96 1.12 0.99 0.83
1.58 1.94 1.85 1.92 1.69 1.46 1.47 1.91 1.96 2.05 1.60 1.23 1.09 1.02 0.88 0.70 0.62 0.78 0.71 0.75 1.01 1.01 0.78 0.55 0.46 0.49 0.37 0.24 0.16 0.12 0.02 0.00 0.00 0.00 0.00 0.04 0.46 0.98 0.67 0.60 0.63 0.74 0.73
1.47 1.75 2.46 2.34 1.92 1.63 1.62 1.47 1.60 1.81 2.03 2.11 1.58 1.38 1.08 1.23 1.35 1.18 0.84 0.62 0.56 0.72 0.79 0.71 0.62 0.60 0.40 0.14 0.08 0.04 0.03 0.04 0.03 0.01 0.01 0.12 1.07 1.14 0.71 0.40 0.49 0.64 0.68
1.47 1.22 1.69 2.15 1.59 1.50 1.46 1.10 1.06 1.02 1.16 1.50 1.44 1.33 1.47 1.26 1.34 1.57 1.10 0.57 0.54 0.59 0.59 0.88 1.05 0.82 0.30 0.24 0.31 0.20 0.14 0.23 0.19 0.09 0.11 0.54 1.29 0.92 0.68 0.53 0.38 0.40 0.66
2.49 1.54 1.08 1.52 1.56 0.97 1.14 0.89 0.76 0.63 0.76 0.99 0.91 1.14 1.01 1.01 0.90 0.69 0.48 0.42 0.45 0.49 0.45 0.65 0.91 0.85 0.71 0.60 0.55 0.68 0.61 0.46 0.44 0.46 0.34 0.68 0.84 0.76 0.71 0.54 0.37 0.34 0.30
2.82 2.46 1.64 1.14 1.38 1.08 1.09 1.05 0.51 0.31 0.31 0.50 0.80 1.12 0.93 0.78 0.74 0.80 0.66 0.58 0.68 0.68 0.49 0.56 0.52 0.59 0.70 0.72 0.64 0.50 0.33 0.26 0.25 0.32 0.41 0.60 0.56 0.58 0.55 0.74 0.70 0.52 0.49
1.98 3.07 2.78 1.89 1.33 1.24 0.88 1.16 0.66 0.41 0.31 0.29 0.35 0.61 1.41 1.33 1.00 0.93 1.01 0.79 0.65 0.67 0.57 0.57 0.49 0.46 0.37 0.40 0.39 0.34 0.31 0.31 0.32 0.35 0.45 0.65 0.57 0.41 0.49 0.55 0.67 0.79 0.84
1.14 1.65 2.81 2.65 2.21 1.72 1.34 1.68 1.44 0.71 0.51 0.46 0.42 0.31 0.40 1.07 1.35 1.52 1.67 1.93 1.60 0.96 0.76 0.83 0.78 0.81 0.78 0.77 0.65 0.52 0.37 0.33 0.35 0.40 0.40 0.43 0.70 0.61 0.50 0.68 0.77 0.93 1.06
0.66 1.04 1.36 2.22 2.68 2.38 1.75 1.86 2.41 1.89 0.96 0.50 0.52 0.56 0.54 0.60 1.06 1.41 1.99 1.93 1.96 1.87 1.44 1.25 1.41 1.50 1.14 1.00 0.83 0.85 0.80 0.67 0.54 0.40 0.35 0.29 0.35 0.51 0.57 0.47 0.53 0.88 1.20
0.54 0.53 0.94 1.04 1.85 2.13 1.76 1.81 2.12 2.15 1.66 0.99 0.68 0.65 0.70 0.70 0.92 1.11 1.21 1.39 1.41 1.31 1.33 1.16 0.97 1.00 0.97 0.86 0.68 0.47 0.36 0.36 0.28 0.23 0.22 0.22 0.35 0.46 0.71 0.83 0.67 0.86 1.11
0.37 0.49 0.64 1.08 1.02 1.40 1.55 1.67 1.68 1.82 1.85 1.24 0.98 0.77 0.70 0.67 0.52 0.47 0.52 0.63 0.84 0.87 0.91 0.93 0.84 0.83 0.78 0.74 0.53 0.40 0.34 0.27 0.20 0.26 0.29 0.34 0.41 0.44 0.45 0.85 1.08 1.09 1.07
0.48 0.52 0.66 0.57 1.02 1.02 1.55 1.62 1.87 1.66 1.72 1.49 0.98 0.68 0.67 0.80 0.88 0.80 0.61 0.54 0.42 0.40 0.44 0.42 0.46 0.56 0.63 0.50 0.35 0.31 0.34 0.32 0.28 0.31 0.35 0.39 0.32 0.30 0.27 0.31 0.42 0.42 0.51
0.85 0.88 0.71 0.61 0.72 0.95 1.11 0.99 0.99 1.26 1.72 1.88 1.43 1.19 1.13 1.07 1.07 1.00 0.83 0.69 0.52 0.34 0.26 0.26 0.34 0.53 0.74 0.71 0.63 0.48 0.32 0.22 0.24 0.29 0.31 0.32 0.31 0.28 0.28 0.26 0.26 0.29 0.34
1.50 1.77 1.37 1.11 1.01 0.94 1.07 1.00 0.90 1.00 1.20 1.63 1.90 1.50 1.43 1.38 1.29 1.05 0.89 0.88 0.75 0.68 0.60 0.60 0.53 0.56 0.60 0.77 0.76 0.61 0.51 0.43 0.36 0.20 0.16 0.19 0.23 0.27 0.31 0.33 0.33 0.26 0.25
1.72 1.87 1.62 1.51 1.54 1.46 1.48 1.88 1.58 1.60 1.48 1.70 2.11 1.91 1.78 1.54 1.46 1.65 1.97 1.65 1.14 1.16 1.26 1.30 1.36 1.34 1.14 0.92 0.81 0.87 0.61 0.42 0.32 0.36 0.25 0.21 0.21 0.21 0.23 0.30 0.32 0.28 0.23
1.02 1.03 1.53 2.55 2.98 2.12 1.91 2.77 3.41 3.12 2.95 2.71 2.93 2.66 2.11 1.84 1.72 1.88 2.22 2.82 3.28 2.84 2.01 1.71 1.57 1.43 1.53 1.39 1.35 1.09 0.91 0.65 0.49 0.35 0.25 0.29 0.35 0.38 0.34 0.36 0.43 0.45 0.45
0.73 0.77 0.94 1.48 2.35 2.43 2.47 2.68 3.18 3.05 2.43 2.15 2.20 2.78 2.81 2.55 2.09 1.89 1.93 2.04 2.04 2.23 2.70 2.47 2.01 1.90 1.79 1.55 1.30 1.07 0.97 0.92 0.93 0.82 0.46 0.27 0.29 0.35 0.41 0.42 0.41 0.53 0.72
0.67 0.78 0.70 1.00 1.46 2.17 2.43 2.43 2.64 2.88 3.15 2.70 2.20 2.40 2.27 1.90 1.85 1.74 1.58 1.49 1.50 1.53 1.63 1.99 2.01 1.74 1.66 1.72 1.68 1.57 1.30 1.21 1.00 1.13 1.04 0.67 0.58 0.44 0.38 0.37 0.40 0.42 0.57